Regional Weather Roundup
Issued by NWS

Home | Current Version | Previous Version | Graphics & Text | Print | Product List | Glossary On
Versions: 1 2 3 4 5 6 7 8 9 10 11 12 13 14 15 16 17 18 19 20 21 22 23 24 25 26 27 28 29 30 31 32 33 34 35 36 37 38 39 40 41 42 43 44 45 46 47 48 49 50
000
ASUS43 KBIS 200102
RWRND

NORTH DAKOTA REGIONAL WEATHER ROUNDUP
NATIONAL WEATHER SERVICE BISMARCK ND
800 PM CDT THU APR 19 2018

NOTE: "FAIR" INDICATES FEW OR NO CLOUDS BELOW 12,000 FEET WITH NO
SIGNIFICANT WEATHER AND/OR OBSTRUCTIONS TO VISIBILITY.


NDZ001>003-009>011-017-200200-
NORTHWEST NORTH DAKOTA

CITY           SKY/WX    TMP DP  RH WIND       PRES   REMARKS
WILLISTON      CLOUDY    48  35  60 E13       30.29
MINOT          PTCLDY    44  36  73 S6        30.33S
MINOT AFB      CLOUDY    44  37  76 SW5       30.32S
$$

NDZ018>021-031>035-040>046-200200-
SOUTHWEST NORTH DAKOTA

CITY           SKY/WX    TMP DP  RH WIND       PRES   REMARKS
BISMARCK       PTCLDY    51  30  44 E14       30.32S
DICKINSON      CLOUDY    50  29  44 E12       30.23S
GARRISON         N/A     40  35  83 VRB6      30.32S
HETTINGER ARPT MOCLDY    50  28  42 SE13      30.25R
$$

NDZ004>008-012>016-024-026-027-054-200200-
NORTHEAST NORTH DAKOTA

CITY           SKY/WX    TMP DP  RH WIND       PRES   REMARKS
GRAND FORKS    FAIR      46  39  76 S7        30.36F
GRND FRKS AFB  FAIR      46  36  66 S9        30.36F
DEVILS LAKE    FAIR      48  34  58 W3        30.36F
$$

NDZ022-023-025-028>030-036>039-047>053-200200-
SOUTHEAST NORTH DAKOTA

CITY           SKY/WX    TMP DP  RH WIND       PRES   REMARKS
FARGO          FAIR      50  31  48 N7        30.37F
JAMESTOWN      CLEAR     47  28  47 S6        30.34F
$$





USA.gov is the U.S. government's official web portal to all federal, state and local government web resources and services.